SL-14 DEB, 45302

Orbit data source: Space-Track

SL-14 DEB, 45302 is space debris in LEO originally from a launch on Thu, 15 Aug 1991 UTC launched from the Plesetsk Missile And Space Complex (PKMTR). Debris objects in space refer to the collection of defunct objects orbiting the Earth. Examples of debris include non-operational satellites, rocket bodies, and fragments generated from explosions, collisions, or faulty payload assembly.

Loading next visibility...
Identifier
45302, 1991-056AQ
Orbit
LEO
Country
Flag of CISCIS
Related business
Manufacturer
Unknown
Mission
Spacecraft
Bus & Motor
Unknown
Mass
Unknown
Launch date (UTC)
1991-08-15 (34 years ago)
Launch vehicle
Unknown
Launch site
Plesetsk Missile And Space Complex (PKMTR)
Object type
Payload
Rocket body
Debris
Shape & HBR
Unknown shape, 0.1 m
Radar Cross Section
Small (<0.1 m²)

Expand to show TLE details & history
Last TLE update: 2 days ago

TLE from 2 days ago
0 SL-14 DEB
1 45302U 91056AQ  25349.02937460  .00008843  00000-0  10493-1 0  9990
2 45302  82.6011 209.9376 0149057 319.8472  39.1736 13.62834097285883
Epoch: 2025-12-15T00:42Z
TLE epoch observation values (Epoch: 2025-12-15T00:42:17.965Z)
Latitude
Longitude
115.42894°
Altitude
943.385 km
Speed
7.422 km/s
True Right ascension
13h 59m 45s
True Declination
0° 00' 00"
Sunlit
Object was in daylight at epoch
Visualization orbit readout
Latitude
Unknown
Longitude
Unknown
Altitude
Unknown
Speed
Unknown
Apparent Right ascension
Unknown
Apparent Declination
Unknown
Sunlit
N/A
Visualization observer readout
Local Sidereal Time
12:53:40
Azimuth
Unknown
Elevation
Unknown
Doppler factor
Unknown
Orbital elements
Apogee altitude
1,132.901 km
Perigee altitude
912.275 km
Semi-major axis
7,400.725 km
Eccentricity
0.01491
Inclination
82.6011°
RAAN
209.9376°
Arg. of periapsis
319.8472°
True anomaly
40.26828°
Mean anomaly
39.1736°
Eccentric anomaly
39.71935°
Mean motion
3.40904 °/min
Orbital period
105.6 mins
BSTAR
0.010493
Loading maneuver chart data...
Computing Atmospheric mass density...
Loading historical data...
Loading historical data...
Loading historical data...
Loading historical data...
Loading historical data...
Loading historical data...
Loading historical data...

Documentation

Showing up to 5 results
|